TimeEST,TemperatureF,Dew PointF,Humidity,Sea Level PressureIn,VisibilityMPH,Wind Direction,Wind SpeedMPH,Gust SpeedMPH,PrecipitationIn,Events,Conditions,WindDirDegrees,DateUTC
12:53 AM,36.0,19.0,50,29.78,10.0,West,9.2,-,N/A,,Overcast,260,2012-12-23 05:53:00
1:53 AM,36.0,19.9,52,29.81,10.0,West,10.4,19.6,N/A,,Overcast,270,2012-12-23 06:53:00
2:53 AM,36.0,19.0,50,29.82,10.0,West,17.3,24.2,N/A,,Clear,260,2012-12-23 07:53:00
3:53 AM,35.1,19.0,52,29.83,10.0,West,11.5,-,N/A,,Clear,260,2012-12-23 08:53:00
4:53 AM,35.1,19.9,54,29.84,10.0,SW,4.6,-,N/A,,Overcast,230,2012-12-23 09:53:00
5:53 AM,35.1,21.0,57,29.86,10.0,SW,6.9,-,N/A,,Overcast,230,2012-12-23 10:53:00
6:53 AM,35.1,21.0,57,29.87,10.0,WSW,5.8,-,N/A,,Overcast,240,2012-12-23 11:53:00
7:53 AM,36.0,21.0,55,29.88,10.0,SW,11.5,-,N/A,,Overcast,230,2012-12-23 12:53:00
8:53 AM,36.0,21.0,55,29.89,10.0,WSW,11.5,-,N/A,,Mostly Cloudy,250,2012-12-23 13:53:00
9:53 AM,37.9,21.0,51,29.90,10.0,WSW,13.8,-,N/A,,Scattered Clouds,240,2012-12-23 14:53:00
10:53 AM,37.9,21.0,51,29.89,10.0,WSW,11.5,-,N/A,,Mostly Cloudy,240,2012-12-23 15:53:00
11:53 AM,39.0,21.9,50,29.86,10.0,West,9.2,-,N/A,,Overcast,260,2012-12-23 16:53:00
12:53 PM,39.9,21.9,49,29.83,10.0,SW,10.4,-,N/A,,Overcast,230,2012-12-23 17:53:00
1:53 PM,39.9,21.9,49,29.81,10.0,WSW,10.4,-,N/A,,Clear,240,2012-12-23 18:53:00
2:53 PM,42.1,21.0,43,29.80,10.0,SW,9.2,-,N/A,,Clear,220,2012-12-23 19:53:00
3:53 PM,41.0,21.0,45,29.80,10.0,SSW,3.5,-,N/A,,Clear,200,2012-12-23 20:53:00
4:53 PM,39.0,19.0,45,29.83,10.0,SW,9.2,16.1,N/A,,Clear,220,2012-12-23 21:53:00
5:53 PM,37.0,19.0,48,29.85,10.0,SSW,4.6,-,N/A,,Clear,210,2012-12-23 22:53:00
6:53 PM,34.0,19.0,54,29.87,10.0,Calm,Calm,-,N/A,,Clear,0,2012-12-23 23:53:00
7:53 PM,28.9,19.9,69,29.88,10.0,Calm,Calm,-,N/A,,Clear,0,2012-12-24 00:53:00
8:53 PM,27.0,19.0,72,29.90,10.0,Calm,Calm,-,N/A,,Clear,0,2012-12-24 01:53:00
9:53 PM,27.0,19.9,75,29.91,10.0,Calm,Calm,-,N/A,,Clear,0,2012-12-24 02:53:00
10:53 PM,26.1,19.9,78,29.91,10.0,SW,6.9,-,N/A,,Scattered Clouds,230,2012-12-24 03:53:00
11:53 PM,30.9,19.0,61,29.92,10.0,WSW,5.8,-,N/A,,Clear,240,2012-12-24 04:53:00